| time (UTC) | temp F | wind direction | speed knots | gust knots | rain 1hr in | rain 24hr in | rain mn in | humidity % | barometer mb |
| 20260509090024 | 49 | 28 | 0.0 | 0.0 | 0.00 | 0.00 | 0.00 | 92 | 1002.4 |
| 20260509084557 | 49 | 26 | 0.0 | 0.0 | 0.00 | 0.00 | 0.00 | 92 | 1002.5 |
| 20260509083036 | 49 | 51 | 0.0 | 0.0 | 0.00 | 0.00 | 0.00 | 91 | 1002.6 |
| 20260509081506 | 49 | 16 | 0.0 | 0.0 | 0.00 | 0.00 | 0.00 | 91 | 1002.7 |
| 20260509080041 | 49 | 24 | 0.0 | 0.0 | 0.00 | 0.00 | 0.00 | 91 | 1002.8 |
| 20260509074512 | 49 | 24 | 0.0 | 0.0 | 0.00 | 0.00 | 0.00 | 90 | 1002.8 |
| 20260509073048 | 49 | 23 | 0.0 | 0.0 | 0.00 | 0.00 | 0.00 | 90 | 1003.0 |
| 20260509071522 | 50 | 22 | 0.0 | 0.0 | 0.00 | 0.00 | 0.00 | 90 | 1003.1 |
| 20260509070104 | 50 | 22 | 0.0 | 0.0 | 0.00 | 0.00 | 0.00 | 89 | 1003.4 |
| 20260509064530 | 50 | 22 | 0.0 | 0.0 | 0.00 | 0.00 | 0.00 | 88 | 1003.6 |
| 20260509063006 | 51 | 23 | 0.0 | 0.0 | 0.00 | 0.00 | 0.00 | 87 | 1003.4 |
| 20260509061546 | 51 | 23 | 0.0 | 0.0 | 0.00 | 0.00 | 0.00 | 87 | 1003.5 |
| 20260509060008 | 52 | 23 | 0.0 | 0.0 | 0.00 | 0.00 | 0.00 | 87 | 1003.8 |
| 20260509054547 | 52 | 22 | 0.0 | 0.0 | 0.00 | 0.00 | 0.00 | 86 | 1003.8 |
| 20260509053016 | 52 | 19 | 0.0 | 0.9 | 0.00 | 0.00 | 0.00 | 86 | 1003.9 |
| 20260509051556 | 52 | 29 | 0.0 | 0.0 | 0.00 | 0.00 | 0.00 | 86 | 1004.1 |
| 20260509050044 | 53 | 25 | 0.0 | 0.9 | 0.00 | 0.00 | 0.00 | 86 | 1004.1 |
| 20260509044502 | 52 | 23 | 0.0 | 0.9 | 0.00 | 0.00 | 0.00 | 86 | 1004.1 |
| 20260509043035 | 52 | 46 | 0.0 | 0.9 | 0.00 | 0.00 | 0.00 | 84 | 1004.1 |
| 20260509041507 | 51 | 117 | 0.0 | 0.0 | 0.00 | 0.00 | 0.00 | 82 | 1004.4 |
| 20260509040043 | 51 | 117 | 0.0 | 0.0 | 0.00 | 0.00 | 0.00 | 80 | 1004.4 |
| 20260509034514 | 51 | 139 | 0.0 | 0.0 | 0.00 | 0.00 | 0.00 | 78 | 1004.5 |
| 20260509033049 | 51 | 171 | 0.0 | 0.0 | 0.00 | 0.00 | 0.00 | 75 | 1004.7 |
| 20260509031526 | 51 | 173 | 0.0 | 0.0 | 0.00 | 0.00 | 0.00 | 74 | 1004.7 |
| 20260509030100 | 51 | 173 | 0.0 | 0.0 | 0.00 | 0.00 | 0.00 | 73 | 1004.9 |
| 20260509024533 | 51 | 173 | 0.0 | 0.0 | 0.00 | 0.00 | 0.00 | 73 | 1004.9 |
| 20260509023012 | 52 | 173 | 0.0 | 0.0 | 0.00 | 0.00 | 0.00 | 72 | 1004.9 |
| 20260509021546 | 52 | 173 | 0.0 | 0.0 | 0.00 | 0.00 | 0.00 | 71 | 1004.9 |
| 20260509020010 | 53 | 173 | 0.0 | 0.0 | 0.00 | 0.00 | 0.00 | 68 | 1005.1 |
| 20260509014544 | 54 | 173 | 0.0 | 0.0 | 0.00 | 0.00 | 0.00 | 66 | 1005.0 |
| 20260509013015 | 55 | 173 | 0.0 | 0.0 | 0.00 | 0.00 | 0.00 | 64 | 1004.9 |
| 20260509011550 | 57 | 173 | 0.0 | 0.0 | 0.00 | 0.00 | 0.00 | 59 | 1004.9 |
| 20260509010022 | 58 | 173 | 0.0 | 0.0 | 0.00 | 0.00 | 0.00 | 56 | 1004.9 |
| 20260509004600 | 60 | 173 | 0.0 | 0.0 | 0.00 | 0.00 | 0.00 | 53 | 1005.0 |
| 20260509003038 | 61 | 173 | 0.0 | 0.0 | 0.00 | 0.00 | 0.00 | 51 | 1004.9 |
| 20260509001508 | 62 | 173 | 0.0 | 0.0 | 0.00 | 0.00 | 0.00 | 50 | 1004.8 |
| 20260509000044 | 62 | 173 | 0.0 | 0.0 | 0.00 | 0.00 | 0.00 | 49 | 1004.9 |
| 20260508234521 | 63 | 178 | 0.0 | 0.9 | 0.00 | 0.00 | 0.00 | 47 | 1004.9 |
| 20260508233054 | 64 | 186 | 0.0 | 0.9 | 0.00 | 0.00 | 0.00 | 45 | 1005.0 |
| 20260508231528 | 64 | 164 | 0.0 | 1.7 | 0.00 | 0.00 | 0.00 | 42 | 1005.1 |
| 20260508230005 | 64 | 186 | 0.0 | 0.0 | 0.00 | 0.00 | 0.00 | 41 | 1005.2 |
| 20260508224538 | 65 | 201 | 0.0 | 0.0 | 0.00 | 0.00 | 0.00 | 43 | 1005.1 |
| 20260508223011 | 67 | 181 | 0.0 | 0.9 | 0.00 | 0.00 | 0.00 | 41 | 1005.3 |
| 20260508221546 | 67 | 185 | 0.0 | 0.0 | 0.00 | 0.00 | 0.00 | 41 | 1005.4 |
| 20260508220018 | 67 | 184 | 0.0 | 0.9 | 0.00 | 0.00 | 0.00 | 39 | 1005.6 |
| 20260508214600 | 67 | 183 | 0.0 | 0.9 | 0.00 | 0.00 | 0.00 | 42 | 1005.5 |
| 20260508213026 | 66 | 192 | 0.0 | 0.0 | 0.00 | 0.00 | 0.00 | 39 | 1005.6 |
| 20260508211505 | 66 | 196 | 0.0 | 0.9 | 0.00 | 0.00 | 0.00 | 38 | 1005.6 |
| 20260508210034 | 66 | 200 | 0.0 | 0.0 | 0.00 | 0.00 | 0.00 | 34 | 1005.7 |
| 20260508204507 | 66 | 218 | 0.0 | 0.9 | 0.00 | 0.00 | 0.00 | 37 | 1005.9 |
| 20260508203040 | 66 | 191 | 0.0 | 1.7 | 0.00 | 0.00 | 0.00 | 33 | 1006.1 |
| 20260508201519 | 66 | 209 | 0.0 | 0.9 | 0.00 | 0.00 | 0.00 | 35 | 1006.2 |
| 20260508200052 | 66 | 202 | 0.0 | 0.9 | 0.00 | 0.00 | 0.00 | 35 | 1006.4 |
| 20260508194526 | 65 | 188 | 0.0 | 0.0 | 0.00 | 0.00 | 0.00 | 38 | 1006.5 |
| 20260508193051 | 64 | 64 | 0.0 | 0.9 | 0.00 | 0.00 | 0.00 | 37 | 1006.8 |
| 20260508191522 | 65 | 198 | 0.0 | 0.9 | 0.00 | 0.00 | 0.00 | 40 | 1007.0 |
| 20260508190054 | 64 | 202 | 0.0 | 0.9 | 0.00 | 0.00 | 0.00 | 44 | 1007.2 |
| 20260508184531 | 63 | 163 | 0.0 | 0.0 | 0.00 | 0.00 | 0.00 | 46 | 1007.4 |
| 20260508183059 | 62 | 155 | 0.0 | 1.7 | 0.00 | 0.00 | 0.00 | 46 | 1007.6 |
| 20260508181550 | 61 | 197 | 0.0 | 0.9 | 0.00 | 0.00 | 0.00 | 46 | 1007.8 |
| 20260508180004 | 61 | 168 | 0.0 | 0.9 | 0.00 | 0.00 | 0.00 | 51 | 1008.0 |
| 20260508174543 | 60 | 238 | 0.0 | 0.0 | 0.00 | 0.00 | 0.00 | 51 | 1008.2 |
| 20260508173008 | 60 | 209 | 0.0 | 0.9 | 0.00 | 0.00 | 0.00 | 55 | 1008.4 |
| 20260508171540 | 59 | 194 | 0.0 | 0.0 | 0.00 | 0.00 | 0.00 | 53 | 1008.8 |
| 20260508170007 | 60 | 128 | 0.0 | 0.9 | 0.00 | 0.00 | 0.00 | 59 | 1008.8 |
| 20260508164543 | 60 | 11 | 0.0 | 0.0 | 0.00 | 0.00 | 0.00 | 59 | 1008.8 |
| 20260508163019 | 60 | 179 | 0.0 | 0.0 | 0.00 | 0.00 | 0.00 | 61 | 1009.1 |
| 20260508161600 | 59 | 216 | 0.0 | 0.9 | 0.00 | 0.00 | 0.00 | 59 | 1009.3 |
| 20260508160026 | 58 | 184 | 0.0 | 0.9 | 0.00 | 0.00 | 0.00 | 57 | 1009.4 |
| 20260508154549 | 57 | 58 | 0.0 | 0.0 | 0.00 | 0.00 | 0.00 | 63 | 1009.4 |
| 20260508153023 | 56 | 34 | 0.0 | 0.9 | 0.00 | 0.00 | 0.00 | 66 | 1009.5 |
| 20260508151605 | 55 | 67 | 0.0 | 0.0 | 0.00 | 0.00 | 0.00 | 76 | 1009.4 |
| 20260508150025 | 54 | 29 | 0.0 | 0.0 | 0.00 | 0.00 | 0.00 | 78 | 1009.4 |
| 20260508144556 | 53 | 45 | 0.0 | 0.9 | 0.00 | 0.00 | 0.00 | 83 | 1009.5 |
| 20260508143029 | 51 | 30 | 0.0 | 0.0 | 0.00 | 0.00 | 0.00 | 87 | 1009.6 |
| 20260508141602 | 50 | 42 | 0.0 | 0.9 | 0.00 | 0.00 | 0.00 | 91 | 1009.6 |
| 20260508140034 | 49 | 49 | 0.0 | 0.0 | 0.00 | 0.00 | 0.00 | 94 | 1009.8 |
| 20260508134501 | 48 | 48 | 0.0 | 0.0 | 0.00 | 0.00 | 0.00 | 94 | 1009.9 |
| 20260508133050 | 47 | 45 | 0.0 | 0.0 | 0.00 | 0.00 | 0.00 | 95 | 1009.9 |
| 20260508131507 | 46 | 45 | 0.0 | 0.0 | 0.00 | 0.00 | 0.00 | 95 | 1010.1 |
| 20260508130041 | 46 | 44 | 0.0 | 0.0 | 0.00 | 0.00 | 0.00 | 95 | 1010.0 |
| 20260508124513 | 44 | 44 | 0.0 | 0.0 | 0.00 | 0.00 | 0.00 | 95 | 1010.1 |
| 20260508123053 | 43 | 44 | 0.0 | 0.0 | 0.00 | 0.00 | 0.00 | 95 | 1010.2 |
| 20260508121516 | 40 | 44 | 0.0 | 0.0 | 0.00 | 0.00 | 0.00 | 95 | 1010.1 |
| 20260508120054 | 39 | 44 | 0.0 | 0.0 | 0.00 | 0.00 | 0.00 | 94 | 1010.0 |
| 20260508114524 | 38 | 44 | 0.0 | 0.0 | 0.00 | 0.00 | 0.00 | 94 | 1009.8 |
| 20260508113102 | 37 | 44 | 0.0 | 0.0 | 0.00 | 0.00 | 0.00 | 94 | 1009.7 |
| 20260508111536 | 37 | 44 | 0.0 | 0.0 | 0.00 | 0.00 | 0.00 | 93 | 1009.6 |
| 20260508110010 | 37 | 44 | 0.0 | 0.0 | 0.00 | 0.00 | 0.00 | 93 | 1009.5 |
| 20260508104548 | 37 | 44 | 0.0 | 0.0 | 0.00 | 0.00 | 0.00 | 93 | 1009.4 |
| 20260508103022 | 37 | 44 | 0.0 | 0.0 | 0.00 | 0.00 | 0.00 | 93 | 1009.3 |
| 20260508101558 | 38 | 44 | 0.0 | 0.0 | 0.00 | 0.00 | 0.00 | 93 | 1009.5 |
| 20260508100031 | 38 | 44 | 0.0 | 0.0 | 0.00 | 0.00 | 0.00 | 93 | 1009.5 |
| 20260508094505 | 38 | 44 | 0.0 | 0.0 | 0.00 | 0.00 | 0.00 | 93 | 1009.4 |
| 20260508093039 | 39 | 44 | 0.0 | 0.0 | 0.00 | 0.00 | 0.00 | 93 | 1009.4 |
| 20260508091512 | 39 | 44 | 0.0 | 0.0 | 0.00 | 0.00 | 0.00 | 92 | 1009.4 |